Thermal, CA

10:46 AM PST on February 13, 2016 (GMT -0800)
Desert Resorts Regional

Weather History for KTRM - June, 2013

Change the Weather History Date:

Saturday, June 22, 2013

  Actual Average Record
Temperature  
Mean Temperature 91 °F 87 °F  
Max Temperature 104 °F 105 °F 117 °F (1959)
Min Temperature 78 °F 69 °F 55 °F (1998)
Degree Days  
Heating Degree Days 0 0  
Month to date heating degree days 0 0  
Since 1 June heating degree days 0 0  
Since 1 July heating degree days 1124 1181  
Cooling Degree Days 26 22  
Month to date cooling degree days 499 425  
Year to date cooling degree days 1406 1098  
Since 1 June cooling degree days 499 425  
Growing Degree Days 40 (Base 50)    
Moisture  
Dew Point 43 °F    
Average Humidity 21    
Maximum Humidity 32    
Minimum Humidity 9    
Precipitation  
Precipitation 0.00 in 0.01 in 0.00 in (2016)
Month to date precipitation 0.00 0.02  
Year to date precipitation 0.44 1.82  
Since 1 July precipitation 2.62  
Snow  
Snow 0.00 in - - ()
Month to date snowfall 0.0  
Year to date snowfall 0.0  
Since 1 June snowfall  
Since 1 July snowfall 0.0  
Snow Depth 0.00 in    
Sea Level Pressure  
Sea Level Pressure 29.67 in    
Wind  
Wind Speed 8 mph (NW)    
Max Wind Speed 18 mph    
Max Gust Speed 26 mph    
Visibility 10 miles    
Events      
T = Trace of Precipitation, MM = Missing Value Source: NWS Daily Summary

Daily Weather History Graph

Daily Weather History Graph

Search for Another Location

Airport or City:

Trip Planner

Search our weather history database for the weather conditions in past years. The results will help you decide how hot, cold, wet, or windy it might be!

Date:

Astronomy

Jun. 22, 2013 Rise Set
Actual Time 5:35 AM PDT 7:58 PM PDT
Civil Twilight 5:06 AM PDT 8:27 PM PDT
Nautical Twilight 4:30 AM PDT 9:03 PM PDT
Astronomical Twilight 3:51 AM PDT 9:42 PM PDT
Moon 7:20 PM PDT (6/22) 4:49 AM PDT (6/22)
Length of Visible Light 15h 21m
Length of Day
14h 23m
Waxing Gibbous, 99% of the Moon is Illuminated
Jun 22
Waxing Gibbous
Jun 23
Full
Jun 29
Last Quarter
Jul 8
New
Jul 15
First Quarter

Hourly Weather History & Observations

Time (PDT) Temp. Dew Point Humidity Pressure Visibility Wind Dir Wind Speed Gust Speed Precip Events Conditions
12:52 AM 82.9 °F 43.0 °F 24% 29.66 in 10.0 mi NNW 12.7 mph - N/A   Clear
1:52 AM 80.1 °F 45.0 °F 29% 29.66 in 10.0 mi NW 6.9 mph - N/A   Clear
2:52 AM 80.1 °F 46.0 °F 30% 29.66 in 10.0 mi NW 9.2 mph - N/A   Clear
3:52 AM 80.1 °F 46.0 °F 30% 29.67 in 10.0 mi NW 16.1 mph 23.0 mph N/A   Clear
4:52 AM 80.1 °F 45.0 °F 29% 29.68 in 10.0 mi NW 12.7 mph 20.7 mph N/A   Clear
5:52 AM 79.0 °F 46.0 °F 31% 29.70 in 10.0 mi NW 9.2 mph - N/A   Clear
6:52 AM 81.0 °F 45.0 °F 28% 29.71 in 10.0 mi NNW 13.8 mph - N/A   Clear
7:52 AM 82.9 °F 46.9 °F 28% 29.73 in 10.0 mi WNW 11.5 mph - N/A   Clear
8:52 AM 86.0 °F 45.0 °F 24% 29.74 in 10.0 mi WSW 5.8 mph - N/A   Clear
9:52 AM 90.0 °F 44.1 °F 20% 29.74 in 10.0 mi Calm Calm - N/A   Clear
10:52 AM 93.9 °F 43.0 °F 17% 29.74 in 10.0 mi Variable 3.5 mph - N/A   Clear
11:52 AM 97.0 °F 39.0 °F 13% 29.73 in 10.0 mi SE 4.6 mph - N/A   Clear
12:52 PM 100.9 °F 39.0 °F 12% 29.71 in 10.0 mi Variable 4.6 mph - N/A   Clear
1:52 PM 100.9 °F 36.0 °F 11% 29.68 in 10.0 mi Variable 6.9 mph - N/A   Clear
2:52 PM 102.0 °F 32.0 °F 9% 29.66 in 10.0 mi Variable 3.5 mph - N/A   Clear
3:52 PM 102.9 °F 37.0 °F 10% 29.64 in 10.0 mi SSE 6.9 mph - N/A   Clear
4:52 PM 102.0 °F 35.1 °F 10% 29.62 in 10.0 mi Variable 3.5 mph - N/A   Clear
5:52 PM 102.0 °F 36.0 °F 10% 29.60 in 10.0 mi Variable 3.5 mph - N/A   Clear
6:52 PM 100.0 °F 39.9 °F 13% 29.60 in 10.0 mi SSE 3.5 mph - N/A   Clear
7:52 PM 96.1 °F 46.9 °F 19% 29.61 in 10.0 mi NNW 10.4 mph - N/A   Clear
8:52 PM 91.9 °F 50.0 °F 24% 29.62 in 10.0 mi NNW 15.0 mph - N/A   Clear
9:52 PM 88.0 °F 51.1 °F 28% 29.64 in 10.0 mi NNW 18.4 mph 24.2 mph N/A   Clear
10:52 PM 86.0 °F 51.1 °F 30% 29.65 in 10.0 mi NNW 16.1 mph 21.9 mph N/A   Clear
11:52 PM 84.9 °F 51.1 °F 31% 29.64 in 10.0 mi NNW 17.3 mph - N/A   Clear